Regional Weather Roundup
Issued by NWS Sterling, VA

Home | Current Version | Previous Version | Graphics & Text | Print | Product List | Glossary On
Versions: 1 2 3 4 5 6 7 8 9 10 11 12 13 14 15 16 17 18 19 20 21 22 23 24 25 26 27 28
000
ASUS41 KLWX 250711
RWRLWX

REGIONAL WEATHER ROUNDUP
NATIONAL WEATHER SERVICE BALTIMORE MD/WASHINGTON DC
300 AM EDT THU MAY 25 2017

Note: "FAIR" indicates few or no clouds below 12,000 feet
with no significant weather and/or obstructions to visibility.
 TC=TEMPERATURE CELSIUS

 * =Non NWS site. Station does not report precipitation (e.g. rain,
    snow, etc.), thunder, or fog.

DCZ001-MDZ009-015-VAZ040>042-051-053>054-250800-
WASHINGTON METRO

CITY           SKY/WX    TMP DP  RH WIND       PRES   REMARKS
WASHINGTON NAT LGT RAIN  58  57  97 E8G20     29.59F
DULLES         LGT RAIN  56  54  93 E16       29.56F
ANDREWS AFB    LGT RAIN  56  54  95 E15       29.57F
FT BELVOIR     LGT RAIN  57  55  93 CALM      29.57F
QUANTICO       LGT RAIN  59  58  96 E8        29.57F
COLLEGE PARK*  CLOUDY    55  54  94 E7        29.59F
LEESBURG*      LGT RAIN  57  57 100 SE10G21   29.57F
MANASSAS*      LGT RAIN  57  56  96 E12       29.56F
GAITHERSBURG*  LGT RAIN  55  54  96 VRB7      29.59F

$$

MDZ006>007-011-014-250800-
BALTIMORE METRO

CITY           SKY/WX    TMP DP  RH WIND       PRES   REMARKS
BWI AIRPORT    LGT RAIN  57  56  96 E16       29.61F
MD SCIENCE CTR   N/A     58  57  97 MISG      29.62F
MARTIN STATE   LGT RAIN  57  57 100 E8G17     29.64F
ANNAPOLIS      LGT RAIN  59  59 100 MISG      29.61F FOG
FORT MEADE*    CLOUDY    55  54  94 E12       29.63F

$$

MDZ012-015-019>023-250800-
MARYLAND EASTERN SHORE

CITY           SKY/WX    TMP DP  RH WIND       PRES   REMARKS
OCEAN CITY     LGT RAIN  57  56  96 E12G22    29.63F
SALISBURY      LGT RAIN  56  56 100 E8        29.61F
BAY BRIDGE AP* LGT RAIN  55  55 100 E9G20     29.61F
CAMBRIDGE*     CLOUDY    55  55 100 E14G20    29.60F FOG
EASTON*        LGT RAIN  56  54  92 E14       29.64F

$$

MDZ017>025-250800-
SOUTHERN MARYLAND

CITY           SKY/WX    TMP DP  RH WIND       PRES   REMARKS
PATUXENT RIVER LGT RAIN  58  58 100 E17       29.59F
ST INIGOES     LGT RAIN  59  58  96 E13       29.57F
LEONARDTOWN*   CLOUDY    55  54  94 E7        29.60F

$$

MDZ003>005-250800-
NORTH CENTRAL MARYLAND

CITY           SKY/WX    TMP DP  RH WIND       PRES   REMARKS
FREDERICK*     LGT RAIN N/A N/A N/A NE9G16    29.61F
HAGERSTOWN APT LGT RAIN  57  54  89 E9        29.58F
WESTMINSTER*   LGT RAIN  55  55 100 E10G16    29.61F

$$

MDZ501>502-250800-
WESTERN MARYLAND

CITY           SKY/WX    TMP DP  RH WIND       PRES   REMARKS
OAKLAND*         N/A     48  48 100 E21G29    29.52F FOG
CUMBERLAND*    CLOUDY    55  55 100 NE7       29.60F

$$

VAZ025>031-250800-
SHENANDOAH VALLEY

CITY           SKY/WX    TMP DP  RH WIND       PRES   REMARKS
WINCHESTER*    LGT RAIN  54  52  94 E7        29.56F
FRONT ROYAL*   CLOUDY    55  55 100 CALM      29.55F
LURAY*         RAIN      55  55 100 NE9       29.53F
NEW MARKET*    CLOUDY    57  55  92 NE6       29.51F
STAUNTON*      DRIZZLE   56  55  97 N3        29.52F
WAYNESBORO*    CLOUDY    56  56 100 NE5       29.50F

$$

WVZ021-048>050-054>055-250800-
EASTERN WEST VIRGINIA PANHANDLE

CITY           SKY/WX    TMP DP  RH WIND       PRES   REMARKS
MARTINSBURG    HVY RAIN  56  54  93 NE7       29.56F FOG
PETERSBURG*    RAIN      58  58  97 NW3       29.52F

$$

VAZ036>039-050-250800-
CENTRAL FOOTHILLS

CITY           SKY/WX    TMP DP  RH WIND       PRES   REMARKS
CHARLOTTESVILL LGT RAIN  59  58  96 NE9       29.51F
CULPEPER*      HVY RAIN  57  57  99 E3        29.56F
ORANGE*        RAIN      55  55 100 CALM      29.52F
GORDONSVILLE*  CLOUDY    58  58 100 E3        29.52F
WARRENTON*     LGT RAIN  58  55  89 E7        29.54F

$$

VAZ055>057-250800-
NORTH AND CENTRAL PIEDMONT

CITY           SKY/WX    TMP DP  RH WIND       PRES   REMARKS
FREDERICKSBRG* RAIN      59  59 100 E8        29.54F
STAFFORD*      RAIN      57  57 100 E9G17     29.60F

$$

NCZ024-NYZ072-PAZ021-071-VAZ022-071-250800-
OTHER REGIONAL OBSERVATIONS

CITY           SKY/WX    TMP DP  RH WIND       PRES   REMARKS
NEW YORK CITY  CLOUDY    58  52  80 VRB6G17   29.79F
PHILADELPHIA   LGT RAIN  57  53  86 E13       29.71F
PITTSBURGH     LGT RAIN  58  57  97 SE9       29.51S
ROANOKE        CLOUDY    59  59 100 NE7       29.49F
RICHMOND       LGT RAIN  59  59 100 E10       29.51F FOG
RALEIGH        CLOUDY    69  67  93 SW9       29.49F

$$

ANZ530>537-250800-
MARINE OBSERVATIONS

STATION/POSITION TIME  TEMP    WIND        PRES
                       AIR SEA DIR/SP/G
                 (UTC) (F)     (DEG/KT/KT) (MB)
THOMAS PT LIGHT  0700   57 64   90/ 13/ 15   N/A
BALT KEY BRIDGE  0648   58      80/ 13/ 17 1002.6F
COVE POINT       0648   57     140/  9/ 11 1003.0F
LEWISETTA        0648   61 66  120/ 20/ 23 1001.1F
SOLOMONS ISLAND  0648          100/ 17/ 20   N/A
PINEY POINT      0648          120/ 18/ 20   N/A

$$





USA.gov is the U.S. government's official web portal to all federal, state and local government web resources and services.